Theta_e
319 318 319 320 310 308 311 315 312 312 310 308 307 306 304 306 306 305 303 303 301 301 301 301 304 312 313 312 319 317 320 319 321 320 321 321 319 320 322 323 323 323 323 324 324 325 327 329 331
319 318 320 316 308 310 310 311 313 311 310 309 308 307 305 304 305 304 303 302 300 300 300 301 304 315 311 307 314 314 317 316 314 316 316 318 319 318 319 321 321 321 323 322 323 322 325 326 328
318 318 316 307 306 309 310 310 311 311 310 310 306 305 304 304 304 303 302 300 299 298 298 299 301 304 310 305 313 306 313 310 307 307 313 314 315 316 316 317 320 321 321 321 321 321 321 324 325
318 317 312 306 309 309 310 309 309 308 308 308 306 303 303 303 303 302 301 298 298 298 297 298 298 300 305 306 313 306 305 302 301 301 304 309 313 313 313 314 316 318 319 320 320 321 321 320 322
317 314 305 306 307 308 308 310 311 308 308 307 307 303 303 301 302 301 299 298 297 297 297 297 297 297 297 297 300 299 298 298 298 298 299 301 307 310 310 312 313 314 316 318 318 319 319 319 319
315 311 305 306 308 308 306 309 309 307 306 306 304 302 301 301 301 300 298 297 296 297 297 297 297 297 296 296 296 296 296 296 296 297 297 297 299 305 307 308 309 312 313 315 316 317 318 319 319
312 306 306 304 306 308 307 308 306 305 305 305 305 301 300 300 300 299 297 296 297 297 297 297 296 296 295 295 295 295 295 295 295 295 295 296 296 297 300 307 308 308 311 312 314 315 316 317 318
315 306 306 306 306 308 307 306 306 306 303 305 304 300 299 299 299 298 297 297 297 297 296 296 296 296 295 295 295 295 295 295 295 295 294 294 295 296 297 299 303 308 309 310 312 314 314 314 317
315 307 307 306 306 306 306 305 302 303 304 302 302 301 299 299 298 297 297 297 297 296 295 295 295 295 295 294 294 294 294 294 294 294 294 294 294 295 296 297 299 302 307 309 309 311 314 314 317
311 308 309 307 306 303 305 306 304 302 300 298 299 299 299 298 298 298 297 297 296 295 294 294 294 294 294 294 294 294 293 293 293 293 293 293 294 294 295 296 297 299 302 307 308 311 313 314 315
308 307 306 306 307 307 305 304 304 301 301 299 298 298 298 297 297 297 296 295 294 294 294 294 294 294 294 294 293 293 293 293 293 293 293 293 293 294 294 295 296 297 299 302 306 308 311 312 312
307 305 306 306 306 306 304 304 302 302 302 302 300 299 298 297 297 297 296 295 294 294 294 294 293 293 293 293 293 293 292 292 293 293 293 293 294 294 294 294 295 298 299 301 302 306 307 310 311
304 305 305 305 306 305 305 303 301 299 300 299 299 298 297 297 297 296 295 294 293 294 293 293 293 293 293 293 292 292 292 292 292 292 292 293 293 292 292 292 293 297 299 300 301 303 306 307 309
304 304 304 305 305 304 302 301 302 300 299 298 298 297 297 297 296 296 295 294 293 293 293 293 292 292 292 292 292 291 291 291 291 291 291 292 292 291 291 291 292 295 298 299 300 302 303 306 307
304 302 302 304 304 302 304 302 300 301 299 298 298 297 297 297 296 296 295 294 293 293 293 292 292 292 292 292 291 291 291 291 291 290 290 290 291 290 290 290 291 292 296 297 298 300 302 304 306
302 301 302 303 303 303 302 300 300 301 299 298 297 297 297 297 296 295 295 293 293 293 292 292 292 292 292 291 291 291 291 291 291 291 291 290 290 289 289 289 289 291 294 295 296 297 300 302 303
302 300 302 304 303 302 301 300 301 301 300 298 297 297 297 296 295 295 294 294 293 293 292 292 291 291 291 291 291 290 290 290 290 290 290 290 289 288 288 288 288 289 291 295 295 296 298 300 302
300 303 302 301 301 301 301 299 300 300 301 300 298 297 297 296 296 296 295 294 294 293 292 291 291 291 291 290 290 290 289 289 289 290 289 288 287 287 287 287 287 287 290 292 294 295 296 298 299
301 303 302 301 301 301 300 299 299 301 299 300 299 297 297 297 297 296 295 294 294 293 292 291 291 291 290 290 290 289 288 288 288 289 288 287 287 287 287 287 287 286 286 290 292 294 294 296 297
302 302 302 301 301 302 300 300 298 299 299 300 300 298 298 297 296 295 295 294 294 293 292 291 291 290 290 290 289 288 288 288 287 287 287 286 286 286 286 286 286 286 286 287 290 292 293 293 295
303 302 300 303 300 300 300 299 300 299 300 300 300 300 299 297 296 296 295 294 293 292 291 291 290 290 290 289 288 288 288 288 288 287 286 286 285 285 286 286 286 286 286 286 287 290 291 292 293
304 302 301 300 298 299 299 301 300 299 299 299 299 300 299 297 297 296 295 294 293 292 291 291 290 289 289 288 288 288 288 288 287 286 285 285 285 285 285 285 286 286 286 285 285 287 290 291 291
303 302 301 300 300 300 301 299 301 299 299 299 299 300 299 298 297 296 295 294 293 292 291 290 289 289 289 288 288 287 287 287 286 286 285 285 285 285 285 285 285 285 285 285 285 285 289 290 290
301 300 301 299 298 295 298 299 301 299 300 300 299 299 300 298 296 296 295 294 293 292 291 290 289 289 288 288 288 287 287 287 286 286 285 285 285 285 284 285 284 285 285 285 285 285 286 289 289
300 300 295 296 292 298 298 299 300 299 299 299 298 298 300 298 296 295 295 294 293 292 291 290 289 289 288 288 287 287 286 286 286 285 284 284 284 284 284 284 284 284 285 285 285 285 285 287 290
300 301 300 297 299 302 298 300 303 299 300 301 302 301 299 297 296 296 295 295 293 292 291 290 289 289 288 288 287 286 286 286 285 284 284 283 282 283 283 284 284 284 284 285 285 285 285 285 288
301 299 300 293 286 295 301 300 299 297 299 299 299 298 297 297 296 296 295 294 293 292 291 289 289 289 288 287 287 286 286 286 285 284 283 283 282 282 282 283 283 284 284 284 285 285 285 284 286
299 297 297 293 296 297 301 302 303 301 298 297 294 296 296 296 296 295 295 294 292 291 290 289 289 288 288 287 286 286 286 285 284 283 283 282 282 282 282 281 282 283 284 284 284 285 285 284 285
297 296 296 297 299 299 299 304 300 301 298 297 296 296 297 297 297 295 294 293 292 291 290 289 288 288 287 287 286 286 286 285 283 283 282 282 281 281 281 281 281 282 283 284 284 284 284 284 284
297 298 298 298 298 296 297 299 300 299 298 298 298 297 296 297 297 295 294 293 292 291 290 289 288 288 287 287 286 285 285 284 283 283 282 281 281 281 281 280 280 281 282 283 284 284 284 284 284
Wind_Speed
6 4 4 5 5 6 3 3 4 5 4 12 20 20 13 11 5 5 9 18 21 19 20 21 22 24 25 25 27 28 28 26 27 24 23 25 25 26 25 24 25 24 23 22 22 20 22 22 22
5 1 4 6 5 4 3 2 5 3 19 24 21 12 12 5 10 3 14 20 15 17 19 20 22 22 24 25 26 26 26 26 26 24 21 22 24 26 27 26 25 25 25 23 22 22 17 22 21
4 6 6 4 4 5 6 5 7 15 26 5 8 12 5 4 8 5 12 12 12 16 19 20 21 20 21 22 24 23 25 26 23 26 25 23 22 25 26 25 26 25 25 24 23 23 22 22 21
2 6 8 5 6 2 7 5 21 16 9 8 19 11 9 8 2 7 9 8 12 16 17 19 19 20 21 23 23 26 26 25 25 27 26 26 24 24 26 27 25 24 25 24 24 24 23 25 25
6 6 5 5 4 3 4 12 12 6 7 8 3 5 6 6 1 3 4 8 13 16 19 20 21 22 24 24 24 23 24 25 27 27 27 26 25 25 27 28 27 26 27 25 25 25 25 26 28
4 6 5 5 3 2 5 14 20 17 15 10 13 8 4 3 1 3 4 10 13 17 19 22 20 20 23 25 25 26 26 27 28 29 28 28 28 27 24 25 27 27 28 28 27 26 25 27 27
6 4 4 6 7 5 5 7 7 10 10 6 10 5 7 4 1 1 5 8 13 16 17 18 20 22 24 25 27 27 28 30 31 32 33 32 29 29 28 25 22 23 26 28 29 30 26 27 26
4 6 5 3 6 5 7 6 12 9 5 9 9 6 6 8 3 2 3 7 11 14 16 17 20 22 24 26 27 27 28 30 30 30 32 32 33 32 31 30 26 23 22 24 26 29 30 27 25
2 5 4 8 9 6 16 6 7 5 12 7 6 10 13 9 6 5 2 4 9 13 16 18 20 21 22 23 25 27 28 28 30 32 33 34 35 35 34 32 30 27 26 22 24 25 25 27 23
5 4 8 5 9 8 14 11 12 7 14 12 17 14 11 9 8 5 2 8 11 14 16 18 19 20 20 22 24 26 28 30 32 33 34 34 35 36 35 34 33 31 27 25 24 22 23 23 23
4 4 1 4 11 25 13 11 7 22 2 11 18 16 12 9 7 3 5 9 12 13 13 16 17 18 19 21 23 25 27 29 31 33 34 35 36 37 38 38 38 37 33 28 27 24 23 22 21
6 7 4 11 17 14 8 17 9 1 6 16 16 14 12 10 7 4 4 7 9 10 13 14 15 16 18 19 22 24 26 29 31 31 33 35 36 37 38 39 38 37 35 31 28 28 23 24 21
6 2 11 19 19 17 16 11 9 13 17 16 15 14 13 10 7 4 3 6 7 8 11 13 14 16 18 19 21 23 25 27 28 30 31 33 35 36 37 37 37 36 36 30 29 30 26 24 24
11 18 11 14 14 12 11 9 3 13 17 16 16 15 12 9 6 3 2 4 6 8 9 12 14 15 16 18 19 20 22 24 26 28 30 31 33 34 36 37 37 36 35 34 28 26 27 22 23
10 7 7 4 4 4 19 1 5 20 20 17 16 14 13 10 7 5 1 3 5 7 9 11 14 15 15 17 19 20 21 22 24 27 28 28 30 31 33 35 36 36 34 35 33 26 22 23 21
5 5 3 3 5 9 4 6 7 24 24 21 19 17 15 12 9 6 3 2 4 6 9 12 13 13 14 17 18 19 20 22 24 26 27 28 28 29 30 32 33 33 32 33 36 31 25 21 20
3 4 3 1 9 6 6 5 9 25 25 24 22 20 18 15 12 9 5 3 5 7 9 11 12 14 15 16 17 18 19 20 23 26 28 28 28 29 29 30 32 31 31 32 33 33 29 21 18
7 4 3 6 6 5 6 9 4 21 28 28 26 24 22 20 16 11 8 6 5 7 10 11 11 12 14 15 17 18 19 19 20 22 26 27 28 28 28 28 29 30 29 30 33 32 34 26 21
7 5 5 1 2 5 8 6 10 22 26 28 29 28 27 24 18 13 9 7 6 7 10 11 11 14 15 18 20 22 23 22 21 21 23 24 26 26 26 27 28 29 30 29 30 31 33 34 29
5 4 2 1 2 2 5 13 9 20 26 34 35 35 32 27 22 16 13 10 8 7 10 10 11 13 14 16 19 21 20 20 19 18 19 20 22 24 25 26 27 28 29 29 29 31 32 31 36
1 5 5 2 2 2 6 8 6 8 22 29 35 37 35 32 27 22 17 12 10 8 9 9 10 11 13 14 16 16 16 18 19 21 21 23 24 24 24 24 25 26 27 29 28 28 29 29 32
3 3 6 7 4 3 2 5 6 5 11 19 28 37 38 35 29 25 21 16 12 9 8 8 8 10 12 14 17 19 21 22 23 21 20 20 21 23 23 23 23 24 25 26 27 26 24 28 30
2 4 5 3 4 3 2 2 7 2 6 17 23 36 38 36 34 30 24 18 14 10 8 6 7 9 11 14 17 18 18 19 19 20 18 19 19 20 21 22 23 22 23 24 25 25 23 24 25
7 6 8 5 3 2 5 6 5 5 7 3 20 32 39 38 35 29 23 20 16 12 8 6 5 7 10 14 16 17 18 20 22 22 22 22 21 20 20 20 21 22 22 23 23 24 22 21 22
4 5 3 4 3 6 2 3 11 6 8 8 18 30 38 41 38 34 30 24 19 14 9 7 5 7 10 13 14 15 18 20 22 24 25 25 24 21 19 19 19 21 21 21 21 22 23 20 21
4 4 5 7 3 3 0 6 7 6 7 14 16 25 38 43 40 36 31 24 20 16 12 9 6 6 9 11 13 15 18 20 22 22 23 25 25 23 20 17 17 18 19 20 19 20 22 22 18
5 4 3 7 1 3 4 7 11 7 5 5 11 23 34 45 42 37 31 26 22 18 14 10 7 7 8 10 12 15 16 19 19 20 23 24 24 23 19 16 15 14 16 19 18 18 21 22 20
3 4 3 3 1 4 4 5 7 5 8 6 10 26 31 39 42 37 33 28 24 20 16 12 8 6 7 9 11 14 15 18 20 22 23 23 23 22 19 14 13 13 14 15 18 17 19 21 22
2 3 2 3 4 5 2 6 8 12 10 13 18 29 33 40 43 40 35 29 25 22 17 13 9 7 7 9 10 11 14 17 19 22 23 23 23 22 20 16 11 11 12 13 16 17 17 19 22
4 7 7 5 5 2 3 8 5 4 8 18 23 28 32 38 43 40 35 31 29 24 20 14 10 8 7 8 8 10 13 15 18 21 22 23 23 23 20 18 13 10 10 11 14 16 16 18 21
Wind_Direction
148 136 106 83 59 61 40 9 148 162 63 86 86 95 101 70 45 130 343 338 347 355 4 8 14 16 10 15 14 13 14 11 9 5 359 357 351 347 348 347 345 343 340 333 332 333 323 302 277
134 94 68 89 86 82 293 259 103 128 135 108 91 84 54 63 53 29 358 349 354 6 14 14 20 23 14 14 15 13 12 9 6 1 358 356 358 346 344 351 346 341 340 332 326 322 322 316 292
102 68 61 80 105 144 163 204 125 137 145 112 110 74 68 14 21 12 343 346 5 16 17 18 21 18 17 22 16 9 13 6 359 358 1 355 352 348 342 345 347 345 340 336 325 316 315 312 302
116 68 68 71 86 16 151 163 125 131 121 81 111 74 83 31 42 353 333 8 17 23 22 23 18 15 15 20 21 12 8 1 355 353 357 355 353 340 343 347 346 345 336 339 327 330 316 309 305
83 75 64 71 24 39 57 136 132 88 86 83 44 121 92 57 25 354 4 20 25 24 25 22 17 18 17 15 12 7 5 1 357 358 355 352 349 347 353 354 349 345 336 332 330 332 320 311 305
85 88 85 128 153 54 50 123 109 93 95 98 101 95 102 117 214 41 32 31 27 26 23 22 15 19 19 18 19 20 19 17 13 8 3 355 350 349 344 342 348 347 337 333 328 325 327 323 313
107 80 139 128 149 106 134 104 86 105 107 70 123 97 129 154 125 32 46 34 27 24 21 20 22 28 27 24 24 20 17 17 16 13 10 7 0 349 346 346 341 338 336 337 335 326 325 326 325
87 90 111 157 172 169 139 108 101 103 84 115 135 155 160 160 196 187 70 32 19 20 20 25 26 25 24 23 22 17 14 10 7 6 5 3 2 360 356 348 342 335 328 331 331 327 323 326 324
105 73 165 179 162 165 143 122 80 103 125 93 127 137 143 160 178 173 130 28 23 26 29 28 28 26 26 22 19 14 10 6 3 2 3 3 3 1 1 359 350 338 328 326 326 321 322 322 321
75 102 194 193 159 151 150 125 132 115 106 100 114 132 158 171 169 167 60 25 28 30 30 28 25 20 17 16 12 9 6 6 5 3 2 2 0 359 358 358 357 353 335 327 325 324 322 317 323
49 130 90 23 151 139 126 111 119 126 81 169 162 156 166 170 155 115 50 32 32 30 29 24 20 16 13 11 10 7 6 5 3 2 1 1 359 358 357 354 355 354 351 332 326 334 331 326 323
94 39 116 121 130 114 109 127 101 9 160 161 162 161 167 169 159 125 64 39 29 25 28 21 17 12 11 7 7 5 5 5 6 6 5 2 0 360 359 356 355 355 353 347 338 333 334 330 318
77 94 64 121 121 107 128 108 131 126 143 158 165 173 175 176 169 141 69 35 25 25 25 18 10 10 8 5 6 3 5 5 5 6 6 4 3 360 360 360 358 357 354 351 344 334 331 328 325
98 87 92 105 103 121 115 133 122 169 164 171 179 183 179 180 177 167 99 30 15 18 19 13 8 8 4 6 8 5 3 4 1 3 4 3 3 0 358 359 360 0 357 351 344 334 325 322 326
88 73 54 50 97 104 122 247 214 179 180 183 190 188 187 188 191 195 191 1 3 4 9 6 5 3 4 8 8 6 4 357 359 1 1 2 360 360 358 358 359 2 359 356 345 342 328 317 325
78 65 121 250 148 169 79 259 206 177 183 191 194 195 199 197 203 209 227 313 345 353 356 360 2 359 4 8 6 5 2 357 357 356 357 358 357 359 359 357 358 0 0 1 356 356 342 328 332
9 172 175 254 205 157 179 257 203 186 193 198 202 202 205 204 207 215 226 279 319 339 349 349 355 357 359 3 5 7 3 1 359 354 355 355 355 357 358 358 358 359 3 2 359 6 358 348 324
185 186 175 199 217 176 208 252 218 196 203 210 209 208 209 211 215 217 227 257 299 327 338 341 349 353 357 357 2 7 7 6 2 357 356 356 356 356 357 357 358 0 2 4 4 360 12 3 350
140 138 166 209 193 168 229 244 223 208 211 215 216 212 213 215 215 220 225 250 275 310 323 332 347 352 354 357 1 5 8 4 3 360 356 353 355 356 357 358 360 2 4 6 7 4 8 11 6
130 124 167 307 191 173 286 261 230 210 217 214 215 213 214 211 206 209 216 236 258 290 310 326 342 349 354 358 2 1 358 3 1 359 355 360 2 359 357 360 2 4 4 5 6 12 3 5 10
110 171 174 189 118 302 341 285 222 225 219 221 223 219 216 210 205 206 212 228 249 273 295 320 337 344 350 353 353 353 354 357 360 3 360 1 360 2 2 2 2 4 6 8 7 7 10 359 6
210 184 139 128 108 220 73 277 280 228 229 222 216 218 215 209 206 208 211 222 236 256 283 313 329 337 344 350 350 353 357 357 359 354 351 354 353 358 1 4 3 3 6 9 10 8 11 13 7
199 105 114 113 96 50 215 49 270 98 240 231 216 216 215 209 205 205 211 220 228 243 267 298 317 333 339 344 349 351 352 354 349 342 344 346 348 350 355 0 3 3 5 8 8 10 12 14 13
145 72 43 47 55 353 223 170 268 204 212 246 210 213 213 205 200 205 210 217 222 232 251 275 303 318 335 339 344 347 349 349 344 338 341 344 342 342 347 356 360 2 3 6 8 11 11 12 16
75 85 10 350 360 224 10 156 251 263 235 208 198 206 211 202 197 202 209 211 217 226 237 255 280 310 324 334 342 347 347 346 340 335 337 336 334 333 335 344 354 0 4 5 4 12 13 10 12
170 162 162 210 200 254 321 233 249 229 272 244 237 219 207 199 202 208 212 215 216 220 229 241 258 294 313 332 340 345 344 345 339 337 339 337 333 329 324 330 342 351 359 4 2 9 15 12 11
188 192 157 99 49 49 226 282 295 240 240 227 199 198 203 203 203 208 209 213 214 219 227 235 250 283 312 330 337 343 345 345 340 346 344 341 339 338 329 317 324 337 351 360 3 7 14 15 15
182 158 93 1 205 264 279 275 244 266 233 221 197 200 203 203 203 206 208 210 211 217 224 232 243 269 306 326 335 343 350 346 345 349 346 345 344 343 340 331 316 325 340 352 359 8 11 15 18
152 209 66 140 168 189 239 254 220 232 196 215 217 211 207 203 203 205 207 209 212 216 221 230 238 262 299 319 336 345 351 345 349 351 349 349 350 349 350 349 331 322 330 339 355 7 9 15 19
206 202 161 141 233 263 135 266 278 200 211 219 222 218 212 209 205 205 206 208 210 214 219 224 234 253 285 313 337 347 352 347 352 356 354 355 355 354 357 358 349 334 330 338 353 2 9 13 17